Regional Weather Roundup
Issued by NWS Newport/Morehead, NC

Current Version | Previous Version | Graphics & Text | Print | Product List | Glossary On
Versions: 1 2 3 4 5 6 7 8 9 10 11 12 13 14 15 16 17 18 19 20 21 22 23 24 25 26 27 28 29 30 31 32 33 34 35 36 37 38 39 40 41 42 43 44 45 46 47 48 49 50
000 ASUS42 KMHX 290410 RWRMHX WEATHER ROUNDUP FOR EASTERN NORTH CAROLINA NATIONAL WEATHER SERVICE NEWPORT/MOREHEAD CITY NC 1100 PM EST SUN DEC 28 2014 NOTE: "FAIR" INDICATES FEW OR NO CLOUDS BELOW 12,000 FEET WITH NO SIGNIFICANT WEATHER AND/OR OBSTRUCTIONS TO VISIBILITY NCZ015>017-031-032-045>047-102-103-290500- NORTH COAST CITY SKY/WX TMP DP RH WIND PRES REMARKS EDENTON CLOUDY 57 56 97 CALM 30.06R FOG ELIZABETH CITY CLOUDY 62 57 83 CALM 30.06R KITTY HAWK CLOUDY 59 59 100 SW5 30.03S MANTEO CLOUDY 57 57 100 SW3 30.05S FOG $$ NCZ045>047-081-094-103-104-290500- CENTRAL COAST CITY SKY/WX TMP DP RH WIND PRES REMARKS FRISCO CLOUDY 58 56 93 CALM 30.06S SWANQUARTER N/A 59 N/A N/A S2 30.03S $$ NCZ095-097-098-100-101-290500- SOUTHERN COAST CITY SKY/WX TMP DP RH WIND PRES REMARKS BEAUFORT CLOUDY 58 57 97 S5 30.06F CEDAR ISLAND N/A 59 N/A N/A CALM 30.09S JACKSONVILLE CLOUDY 62 58 86 CALM 30.05F PINEY ISLAND MOCLDY 62 57 83 CALM 30.05F WILMINGTON MOCLDY 62 61 96 CALM 30.07R $$ NCZ011>013-027>030-043-044-078>080-089-090>093-098-290500- COASTAL PLAIN CITY SKY/WX TMP DP RH WIND PRES REMARKS AHOSKIE CLOUDY 56 56 97 CALM 30.06S FOG CLINTON LGT RAIN 60 60 100 CALM 30.08R ELIZABETHTOWN CLOUDY 63 62 97 CALM 30.07R GOLDSBORO CLOUDY 59 59 100 NW1 30.06R FOG GREENVILLE CLOUDY 59 59 100 CALM 30.08R FOG HAVELOCK N/A 62 58 86 CALM 30.07F KENANSVILLE CLOUDY 60 59 98 CALM 30.08R FOG KINSTON MOCLDY 60 60 99 CALM 30.07R NEW BERN CLOUDY 61 57 87 CALM 30.07S RICHLANDS CLOUDY 61 57 88 CALM 30.07F ROCKY MOUNT FOG 54 53 97 CALM 30.07R VSB 1/4 WASHINGTON CLOUDY 59 58 98 CALM 30.06S WHITEVILLE PTCLDY 62 60 93 CALM 30.06F $$ AMZ130-135-150-152-154-156-158-170-250-252-270-ANZ085-086-088-633-658-670-290500- MARINE OBSERVATIONS STATION/POSITION TIME TEMP WIND PRES WAVE SWELL AIR SEA DIR/SP/G HT/PER HT/PER (UTC) (F) (DEG/KT/KT) (MB) (FT/S) (FT/S) CHESAPEAKE LIGHT 0300 57 250/ 7/ 7 1017.9 64 E VA BEACH 0400 55 53 140/ 2/ 4 1016.6 3/ 5 3/ 5 DUCK 0400 57 50 250/ 12/ 15 1016.7 2 E DUCK 0400 49 N/A 2/13 2/13 10 NE DUCK 0400 50 N/A 2/13 2/13 OREGON INLET 0400 56 53 180/ 5/ 5 1017.4 13E OREGON INLT 0400 56 N/A 2/12 2/12 HATTERAS CG 0400 55 56 320/ 2/ 2 1018.2 DIAMOND BUOY 0400 64 1018.2 3/11 17 S OCRACOKE NOT AVBL CAPE LOOKOUT 0300 60 280/ 5/ 5 1018.1 BEAUFORT LAB 0400 60 56 230/ 1/ 2 1017.1 30 SE NEW RIVER 0400 62 60 250/ 6/ 8 1018.5 3/13 2/13 5 SE WRIGHTSVLE NOT AVBL 225 S CAPE HAT 0348 74 74 220/ 19/ 23 1020.4 5/11 3/11 41 SE CHARLESTON 0400 73 74 220/ 10/ 12 1018.3 2/14 2/14 $$

USA.gov is the U.S. government's official web portal to all federal, state and local government web resources and services.